St. Joseph, KS

6:52 PM CDT on September 20, 2019 (GMT -0500)
Rosecrans Memorial

Weather History for KSTJ - July, 2019

Change the Weather History Date:

Sunday, July 21, 2019

  Actual Average Record
Temperature  
Mean Temperature 77 °F 77 °F  
Max Temperature 83 °F 87 °F 106 °F (1934)
Min Temperature 70 °F 67 °F 50 °F (1970)
Degree Days  
Heating Degree Days 0 0  
Month to date heating degree days 0 0  
Since 1 June heating degree days 1 8  
Since 1 July heating degree days 0 0  
Cooling Degree Days 12 12  
Month to date cooling degree days 337 250  
Year to date cooling degree days 731 630  
Since 1 June cooling degree days 630 517  
Growing Degree Days 26 (Base 50)    
Moisture  
Dew Point 69 °F    
Average Humidity 79    
Maximum Humidity 93    
Minimum Humidity 65    
Precipitation  
Precipitation 0.55 in 0.17 in 3.50 in (1990)
Month to date precipitation 0.77 3.40  
Year to date precipitation 22.04 20.53  
Sea Level Pressure  
Sea Level Pressure 29.98 in    
Wind  
Wind Speed 10 mph (NE)    
Max Wind Speed 29 mph    
Max Gust Speed 37 mph    
Visibility 8 miles    
Events Rain , Thunderstorm    
T = Trace of Precipitation, MM = Missing Value Source: NWS Daily Summary

Daily Weather History Graph

Daily Weather History Graph

Search for Another Location

Airport or City:

Astronomy

Jul. 21, 2019 Rise Set
Actual Time 6:08 AM CDT 8:42 PM CDT
Civil Twilight 5:37 AM CDT 9:14 PM CDT
Nautical Twilight 4:58 AM CDT 9:52 PM CDT
Astronomical Twilight 4:15 AM CDT 10:36 PM CDT
Moon 11:38 PM CDT (7/21) 10:29 AM CDT (7/21)
Length of Visible Light 15h 36m
Length of Day
14h 34m
Waning Gibbous, 80% of the Moon is Illuminated
Jul 21
Waning Gibbous
Jul 24
Last Quarter
Jul 31
New
Aug 7
First Quarter
Aug 15
Full

Hourly Weather History & Observations

Time (CDT) Temp. Heat Index Dew Point Humidity Pressure Visibility Wind Dir Wind Speed Gust Speed Precip Events Conditions
12:08 AM 80.1 °F 83.8 °F 72.0 °F 76% 29.88 in 10.0 mi ESE 21.9 mph 32.2 mph 0.00 in Rain , Thunderstorm Light Thunderstorms and Rain
12:18 AM 78.1 °F - 72.0 °F 81% 29.86 in 10.0 mi SE 19.6 mph 31.1 mph 0.00 in Rain , Thunderstorm Light Rain
12:38 AM 75.9 °F - 71.1 °F 85% 29.88 in 10.0 mi SE 19.6 mph 31.1 mph 0.00 in   Mostly Cloudy
12:53 AM 75.0 °F - 71.1 °F 87% 29.89 in 10.0 mi ESE 16.1 mph 25.3 mph 0.00 in Thunderstorm Thunderstorm
1:16 AM 73.0 °F - 69.1 °F 87% 29.94 in 8.0 mi East 15.0 mph 24.2 mph 0.01 in Rain , Thunderstorm Light Rain
1:27 AM 73.0 °F - 69.1 °F 87% 29.97 in 10.0 mi NNE 9.2 mph 19.6 mph 0.01 in Rain , Thunderstorm Light Thunderstorms and Rain
1:50 AM 71.6 °F - 68.0 °F 88% 29.97 in 10.0 mi East 16.1 mph 33.4 mph 0.02 in Rain , Thunderstorm Light Thunderstorms and Rain
1:53 AM 72.0 °F - 68.0 °F 87% 29.97 in 10.0 mi NNE 12.7 mph 31.1 mph 0.02 in Rain , Thunderstorm Light Thunderstorms and Rain
2:07 AM 72.0 °F - 68.0 °F 87% 29.99 in 10.0 mi East 13.8 mph 24.2 mph 0.00 in Thunderstorm Thunderstorm
2:20 AM 72.0 °F - 68.0 °F 87% 29.98 in 10.0 mi ESE 18.4 mph 26.5 mph 0.00 in Thunderstorm Overcast
2:53 AM 72.0 °F - 68.0 °F 87% 29.97 in 10.0 mi SE 13.8 mph - 0.00 in   Overcast
3:39 AM 72.0 °F - 68.0 °F 87% 29.98 in 10.0 mi ESE 11.5 mph - N/A   Overcast
3:53 AM 72.0 °F - 68.0 °F 87% 29.93 in 10.0 mi ESE 12.7 mph - N/A   Overcast
4:53 AM 73.0 °F - 69.1 °F 87% 29.99 in 7.0 mi NNW 8.1 mph - 0.00 in Rain , Thunderstorm Light Rain
5:02 AM 72.0 °F - 69.1 °F 91% 30.02 in 2.5 mi North 6.9 mph - 0.01 in Rain , Thunderstorm Heavy Thunderstorms and Rain
5:17 AM 71.1 °F - 69.1 °F 93% 30.01 in 1.5 mi West 3.5 mph - 0.04 in Rain , Thunderstorm Heavy Rain
5:39 AM 71.1 °F - 69.1 °F 93% 29.99 in 3.0 mi SW 6.9 mph - 0.10 in Rain , Thunderstorm Rain
5:53 AM 71.1 °F - 69.1 °F 93% 29.97 in 3.0 mi SSW 13.8 mph - 0.14 in Rain , Thunderstorm Light Rain
6:14 AM 71.1 °F - 69.1 °F 93% 29.98 in 8.0 mi WSW 12.7 mph 23.0 mph 0.05 in Rain Light Rain
6:53 AM 72.0 °F - 69.1 °F 91% 29.96 in 9.0 mi SW 15.0 mph - 0.14 in Rain Light Rain
7:53 AM 71.1 °F - 69.1 °F 93% 29.95 in 9.0 mi SW 6.9 mph - 0.10 in Rain Light Rain
8:53 AM 73.0 °F - 69.1 °F 87% 29.92 in 10.0 mi SSW 8.1 mph - 0.05 in   Partly Cloudy
9:53 AM 73.9 °F - 70.0 °F 87% 29.94 in 10.0 mi East 4.6 mph - 0.02 in   Partly Cloudy
10:32 AM 75.0 °F - 70.0 °F 84% 30.01 in 10.0 mi NNE 12.7 mph - N/A   Mostly Cloudy
10:53 AM 75.0 °F - 69.1 °F 82% 29.98 in 10.0 mi NNE 13.8 mph - N/A   Mostly Cloudy
11:53 AM 79.0 °F - 69.1 °F 72% 29.99 in 10.0 mi North - - N/A   Mostly Cloudy
12:00 PM 79.0 °F - 69.1 °F 72% 30.02 in 10.0 mi NE 10.4 mph - N/A   Mostly Cloudy
12:16 PM 78.1 °F - 69.1 °F 74% 30.02 in 10.0 mi NE 9.2 mph - N/A   Mostly Cloudy
12:25 PM 80.1 °F 83.2 °F 70.0 °F 71% 30.02 in 10.0 mi NE 11.5 mph - N/A   Scattered Clouds
12:53 PM 78.1 °F - 68.0 °F 71% 29.99 in 10.0 mi NE 10.4 mph - N/A   Mostly Cloudy
1:53 PM 78.1 °F - 68.0 °F 71% 29.96 in 10.0 mi East 10.4 mph - N/A   Overcast
2:53 PM 82.0 °F 85.9 °F 70.0 °F 67% 29.96 in 10.0 mi ENE 11.5 mph - N/A   Partly Cloudy
3:53 PM 82.9 °F 87.0 °F 70.0 °F 65% 29.97 in 10.0 mi North - - N/A   Partly Cloudy
4:53 PM 79.0 °F - 69.1 °F 72% 29.97 in 10.0 mi NE 6.9 mph - N/A   Overcast
5:53 PM 75.9 °F - 71.1 °F 85% 29.99 in 7.0 mi NNW 6.9 mph - 0.00 in Rain Light Rain
6:53 PM 75.0 °F - 71.1 °F 87% 29.98 in 8.0 mi North 12.7 mph - 0.01 in Rain Light Rain
7:37 PM 73.0 °F - 71.1 °F 93% 30.01 in 9.0 mi North 13.8 mph - 0.00 in Rain Light Rain
7:53 PM 73.0 °F - 71.1 °F 93% 30.00 in 8.0 mi North 11.5 mph - 0.00 in Rain Light Rain
8:06 PM 73.0 °F - 71.1 °F 93% 30.02 in 2.5 mi North 12.7 mph - 0.00 in Rain Rain
8:11 PM 73.0 °F - 71.1 °F 93% 30.02 in 1.8 mi North 12.7 mph - N/A Rain Heavy Rain
8:32 PM 72.0 °F - 69.1 °F 91% 30.03 in 3.0 mi NE 15.0 mph - N/A Rain Light Rain
8:53 PM 72.0 °F - 69.1 °F 91% 30.01 in 5.0 mi NNE 8.1 mph - N/A Rain Light Rain
9:08 PM 72.0 °F - 69.1 °F 91% 30.03 in 7.0 mi NNE 13.8 mph - 0.00 in Rain Light Rain
9:16 PM 72.0 °F - 68.0 °F 87% 30.03 in 8.0 mi NNE 11.5 mph - 0.00 in Rain Light Rain
9:27 PM 72.0 °F - 69.1 °F 91% 30.03 in 8.0 mi NNE 9.2 mph - 0.01 in Rain Light Rain
9:53 PM 72.0 °F - 69.1 °F 91% 30.02 in 10.0 mi North 6.9 mph - 0.02 in Rain Light Rain
10:53 PM 72.0 °F - 69.1 °F 91% 30.03 in 10.0 mi North 9.2 mph - 0.03 in   Overcast
11:53 PM 71.1 °F - 69.1 °F 93% 30.04 in 9.0 mi North 8.1 mph - 0.01 in   Overcast